Regional Weather Roundup
Issued by NWS Green Bay, WI

Home | Current Version | Previous Version | Text Only | Print | Product List | Glossary On
Versions: 1 2 3 4 5 6 7 8 9 10 11 12 13 14 15 16 17 18 19 20 21 22 23 24 25 26 27 28 29 30 31 32 33 34 35 36 37 38 39 40 41 42 43 44 45 46 47 48 49 50
000
ASUS43 KGRB 220410
RWRGRB

NORTH-CENTRAL AND NORTHEAST WISCONSIN REGIONAL WEATHER ROUNDUP
NATIONAL WEATHER SERVICE GREEN BAY WI
1100 PM CDT TUE OCT 21 2014

WIZ005-009-010>012-018-019-220500-
NORTH CENTRAL WISCONSIN

CITY           SKY/WX    TMP DP  RH WIND       PRES   REMARKS
IRONWOOD       CLEAR     30  28  93 CALM      30.23S
MANITOWISH WTR CLEAR     28  28 100 CALM      30.25S
ARBOR VITAE    CLEAR     37  34  90 SE6       30.25S
EAGLE RIVER    CLEAR     31  30  96 CALM      30.26S
LAND O LAKES   CLEAR     29  28  96 CALM      30.28R
RHINELANDER    CLEAR     35  29  78 SE3       30.27R
PHILLIPS       CLEAR     31  30  96 CALM      30.24S
ANTIGO         CLEAR     35  32  90 SE6       30.29R
TOMAHAWK       CLEAR     31  30  96 CALM      30.27S
MERRILL        CLEAR     29  28  96 CALM      30.27R
$$

WIZ013-073-220500-
NORTHEAST WISCONSIN

CITY           SKY/WX    TMP DP  RH WIND       PRES   REMARKS
IRON MOUNTAIN  CLEAR     30  26  85 CALM      30.30R
MARINETTE      CLEAR     36  28  75 N5        30.30S
OCONTO         CLEAR     32  32 100 CALM      30.31R
$$

WIZ017-030-035>037-045-220500-
CENTRAL WISCONSIN

CITY           SKY/WX    TMP DP  RH WIND       PRES   REMARKS
MEDFORD        CLEAR     32  32  98 CALM      30.26S
WAUSAU         CLEAR     37  32  82 E5        30.27R
MOSINEE        CLEAR     36  32  87 E5        30.28R
MARSHFIELD     CLEAR     39  34  82 S3        30.27R
WISC RAPIDS    CLEAR     36  33  89 SE6       30.29R
STEVENS POINT  CLEAR     30  28  94 CALM      30.28S
WAUPACA        CLEAR     34  32  93 CALM      30.29S
SHAWANO        CLEAR     39  36  87 CALM      30.31R
CLINTONVILLE   CLEAR     32  30  93 CALM      30.30R
$$

WIZ038-039-048-051-220500-
FOX VALLEY

CITY           SKY/WX    TMP DP  RH WIND       PRES   REMARKS
NWS GREEN BAY  CLEAR     34  33  96 CALM      30.30R
APPLETON       CLEAR     39  32  75 VRB5      30.29R
OSHKOSH        CLEAR     36  34  92 CALM      30.28S
FOND DU LAC    CLEAR     34  32  92 CALM      30.29R
$$

WIZ022-050-052-220500-
EAST CENTRAL WISCONSIN

CITY           SKY/WX    TMP DP  RH WIND       PRES   REMARKS
STURGEON BAY   CLEAR     39  34  81 NE5       30.30S
MANITOWOC      CLEAR     35  34  96 CALM      30.30S
SHEBOYGAN      CLEAR     33  31  92 CALM      30.28F
$$

LMZ563-521-522-541>543-220500-
LAKESHORE

STATION/POSITION TIME  TEMP    WIND        PRES    VSBY  WAVE
                       AIR SEA DIR/SP/G                  HT/PER
                 (UTC) (F)     (DEG/KT/KT) (MB)    (MI)  (FT/S)
SHEBOYGAN LKSHOR 0400   47 49   60/ 15/ 16 1026.2S
KEWAUNEE LKSHORE 0400   46      70/  8/ 12 1024.9S
NORTHPORT PIER   0400   43      50/  7/  8 1026.1S
N MID LAKE BUOY  0400   46 51   90/ 10/ 14 1026.5S         2/ 4
CHAMBERS ISLAND  0400   44      50/  8/ 12 1026.4S
MENOMINEE LKSHOR 0400   45      50/ 12/ 15 1026.6F
$$



USA.gov is the U.S. government's official web portal to all federal, state and local government web resources and services.